Location: Unspecified
(0.0000°N, 0.0000°E)
Time: 09:39:35
(UTC+02:00)

Meteor PRIRODA - Visible Passes

Search period start: 23 July 2014 00:00
Search period end: 02 August 2014 00:00
Orbit: 510 x 536 km, 97.3° (Epoch: 22 July)

Date Brightness Start Highest point End Pass type
(mag) Time Alt. Az. Time Alt. Az. Time Alt. Az.
23 Jul 4.4 07:14:29 10° NNW 07:17:52 34° W 07:21:17 10° SW visible
24 Jul 3.7 07:01:39 10° N 07:05:18 56° W 07:08:37 12° SSW visible
25 Jul 3.6 06:49:00 10° NNE 06:52:44 87° ESE 06:55:53 14° S visible
26 Jul 4.4 06:36:32 10° NNE 06:40:09 52° E 06:43:10 15° S visible
27 Jul 5.4 06:24:14 10° NE 06:27:35 32° ESE 06:30:26 13° SSE visible
28 Jul 6.1 06:12:12 10° NE 06:15:01 20° ESE 06:17:43 11° SSE visible
29 Jul 6.7 06:00:38 10° ENE 06:02:27 13° ESE 06:04:17 10° SE visible
29 Jul 5.3 07:33:54 10° NW 07:36:24 17° W 07:38:56 10° WSW visible
30 Jul 4.7 07:20:38 10° NNW 07:23:49 27° W 07:27:02 10° SW visible
31 Jul 4.1 07:07:41 10° N 07:11:14 43° W 07:14:43 11° SSW visible
01 Aug 3.6 06:54:56 10° N 06:58:39 72° W 07:02:00 13° SSW visible
